GEFSMW_prec_meanprecacc_156.txt.gz
Total_Precipitation_Accumulation
0.80 1.03 1.21 1.36 1.61 1.81 1.88 1.99 2.14 2.35 2.55 2.85 3.19 3.34 3.42 3.64 3.78 3.89 4.03 3.99 3.96 4.08 4.12 4.02 3.92 3.78 3.66 3.47 3.35 3.17 3.00 2.77 2.69 2.57 2.24 1.83 1.59 1.57 1.50 1.51 1.62 1.62 1.54
0.92 1.22 1.49 1.87 2.02 2.05 2.08 2.16 2.28 2.54 2.83 3.21 3.66 4.08 4.25 4.38 4.41 4.45 4.66 4.76 4.79 4.96 5.08 5.00 4.80 4.57 4.24 3.81 3.47 3.27 3.11 2.85 2.81 2.77 2.67 2.14 1.75 1.48 1.22 1.28 1.34 1.38 1.47
1.23 1.46 1.72 1.89 2.00 2.04 2.13 2.26 2.57 2.99 3.43 3.91 4.42 4.86 5.13 5.17 5.11 4.83 4.95 5.09 5.06 5.13 5.30 5.28 5.03 4.66 4.11 3.62 3.43 3.34 3.21 3.02 2.93 2.79 2.83 2.43 2.05 1.72 1.33 1.13 1.06 1.12 1.15
1.25 1.47 1.67 1.89 1.97 2.06 2.23 2.36 2.70 3.24 3.72 4.18 4.85 5.37 5.65 5.82 5.92 5.71 5.43 5.28 5.11 4.97 4.85 4.70 4.30 3.84 3.50 3.25 3.16 3.15 2.97 2.94 2.85 2.77 2.48 2.26 2.03 1.84 1.54 1.25 1.07 1.04 1.03
1.10 1.33 1.45 1.69 1.96 2.04 2.05 2.13 2.54 3.13 3.86 4.57 5.12 5.61 5.99 6.15 6.10 5.75 5.39 4.99 4.64 4.21 3.84 3.48 3.17 3.02 2.82 2.61 2.53 2.52 2.48 2.37 2.31 2.31 2.25 2.17 1.97 1.71 1.54 1.36 1.19 1.15 1.07
0.99 1.05 1.13 1.33 1.65 1.71 1.85 2.07 2.40 3.06 3.80 4.41 4.96 5.34 5.70 5.75 5.49 5.06 4.61 4.30 3.93 3.46 2.99 2.73 2.50 2.34 2.16 1.95 1.83 1.81 1.86 1.93 2.01 2.07 2.05 2.01 1.98 1.85 1.76 1.61 1.41 1.33 1.28
0.90 0.97 1.00 1.12 1.32 1.48 1.75 2.13 2.50 2.99 3.41 3.92 4.39 4.66 4.85 4.90 4.81 4.57 4.24 3.96 3.54 3.10 2.64 2.23 2.02 1.80 1.63 1.54 1.49 1.44 1.44 1.51 1.61 1.76 1.81 1.80 1.79 1.75 1.76 1.77 1.65 1.50 1.36
0.98 1.12 1.22 1.29 1.39 1.50 1.63 1.96 2.30 2.68 2.89 3.12 3.47 3.69 3.82 3.88 3.79 3.61 3.36 3.08 2.79 2.52 2.17 1.75 1.43 1.25 1.12 1.06 1.09 1.14 1.19 1.21 1.25 1.34 1.47 1.51 1.50 1.55 1.62 1.69 1.74 1.73 1.54
0.98 1.14 1.27 1.36 1.43 1.47 1.59 1.66 1.82 2.03 2.27 2.48 2.61 2.71 2.75 2.68 2.62 2.48 2.27 2.08 1.91 1.70 1.48 1.25 1.08 0.97 0.92 0.87 0.85 0.86 0.88 0.92 0.98 1.04 1.14 1.26 1.33 1.36 1.43 1.53 1.62 1.66 1.63
1.03 1.12 1.17 1.24 1.24 1.20 1.27 1.35 1.46 1.57 1.71 1.83 1.86 1.78 1.79 1.79 1.68 1.56 1.48 1.34 1.19 1.06 0.99 0.89 0.83 0.78 0.71 0.70 0.72 0.70 0.69 0.78 0.81 0.82 0.88 0.99 1.12 1.20 1.28 1.39 1.45 1.46 1.44
1.01 1.02 1.01 1.02 1.02 0.94 0.95 1.03 1.12 1.26 1.34 1.37 1.38 1.29 1.22 1.15 1.07 1.00 0.99 0.92 0.83 0.78 0.74 0.69 0.66 0.64 0.63 0.61 0.60 0.61 0.59 0.64 0.75 0.83 0.87 0.91 0.96 1.03 1.08 1.12 1.18 1.27 1.33
1.01 0.92 0.87 0.83 0.80 0.77 0.77 0.81 0.89 0.95 0.96 0.95 0.93 0.90 0.84 0.80 0.78 0.76 0.76 0.80 0.76 0.69 0.65 0.62 0.60 0.59 0.60 0.61 0.59 0.57 0.57 0.59 0.65 0.71 0.75 0.76 0.75 0.82 0.90 0.95 0.99 1.05 1.12
1.00 0.96 0.91 0.82 0.79 0.82 0.80 0.74 0.76 0.80 0.80 0.79 0.79 0.75 0.74 0.73 0.72 0.72 0.73 0.75 0.71 0.64 0.59 0.57 0.56 0.57 0.57 0.55 0.56 0.56 0.54 0.53 0.57 0.58 0.59 0.62 0.64 0.66 0.69 0.72 0.77 0.83 0.88
0.92 0.95 1.01 0.97 0.88 0.82 0.82 0.78 0.74 0.74 0.78 0.76 0.72 0.64 0.61 0.63 0.65 0.64 0.64 0.63 0.61 0.61 0.61 0.59 0.55 0.50 0.46 0.42 0.38 0.38 0.38 0.37 0.39 0.41 0.43 0.48 0.55 0.56 0.56 0.55 0.57 0.62 0.72
1.05 1.01 1.01 0.99 0.93 0.85 0.81 0.77 0.76 0.75 0.80 0.82 0.81 0.73 0.64 0.61 0.61 0.61 0.62 0.60 0.55 0.50 0.48 0.43 0.39 0.31 0.25 0.23 0.21 0.23 0.26 0.27 0.28 0.29 0.29 0.31 0.40 0.47 0.47 0.45 0.49 0.57 0.65
1.29 1.25 1.17 1.14 1.11 1.02 0.90 0.83 0.82 0.83 0.87 0.93 0.98 0.98 0.90 0.81 0.75 0.68 0.62 0.58 0.53 0.44 0.35 0.29 0.26 0.22 0.17 0.17 0.15 0.17 0.23 0.27 0.27 0.28 0.29 0.28 0.31 0.35 0.36 0.41 0.51 0.61 0.62
1.53 1.48 1.42 1.35 1.28 1.19 1.11 1.05 0.97 0.93 0.92 0.95 0.98 0.95 0.89 0.80 0.71 0.61 0.53 0.51 0.48 0.44 0.39 0.30 0.24 0.21 0.19 0.16 0.15 0.15 0.22 0.28 0.30 0.31 0.32 0.28 0.27 0.31 0.32 0.37 0.43 0.48 0.51
1.47 1.47 1.46 1.44 1.41 1.29 1.20 1.14 1.07 1.02 0.97 0.98 0.94 0.87 0.76 0.67 0.58 0.52 0.50 0.49 0.46 0.47 0.45 0.38 0.32 0.27 0.18 0.13 0.13 0.14 0.22 0.30 0.30 0.31 0.33 0.34 0.33 0.33 0.35 0.35 0.38 0.44 0.50
1.53 1.51 1.44 1.36 1.33 1.25 1.20 1.14 1.11 1.05 0.97 0.92 0.82 0.69 0.60 0.56 0.53 0.50 0.49 0.48 0.46 0.44 0.41 0.36 0.34 0.34 0.25 0.13 0.11 0.13 0.26 0.35 0.31 0.26 0.25 0.28 0.32 0.33 0.34 0.37 0.46 0.51 0.55
1.30 1.23 1.13 1.08 1.10 1.11 1.08 1.04 1.00 0.94 0.85 0.71 0.57 0.50 0.48 0.49 0.49 0.47 0.45 0.44 0.44 0.44 0.37 0.31 0.31 0.31 0.27 0.16 0.13 0.16 0.27 0.35 0.32 0.28 0.27 0.25 0.25 0.27 0.27 0.36 0.48 0.57 0.58
0.93 0.87 0.86 0.94 1.00 1.00 0.93 0.89 0.83 0.77 0.65 0.56 0.49 0.45 0.42 0.39 0.41 0.42 0.43 0.43 0.42 0.45 0.43 0.40 0.36 0.30 0.22 0.14 0.11 0.13 0.20 0.29 0.31 0.33 0.35 0.32 0.22 0.20 0.23 0.31 0.40 0.48 0.47
0.67 0.66 0.70 0.78 0.79 0.73 0.74 0.80 0.74 0.62 0.50 0.53 0.54 0.49 0.43 0.36 0.40 0.50 0.49 0.46 0.50 0.54 0.52 0.48 0.43 0.32 0.23 0.13 0.10 0.11 0.13 0.16 0.28 0.36 0.35 0.31 0.22 0.21 0.25 0.30 0.38 0.41 0.48
0.50 0.55 0.56 0.61 0.65 0.62 0.65 0.71 0.70 0.58 0.54 0.60 0.59 0.48 0.39 0.42 0.45 0.49 0.47 0.42 0.43 0.40 0.37 0.36 0.35 0.30 0.24 0.16 0.09 0.09 0.11 0.13 0.19 0.26 0.24 0.22 0.24 0.27 0.39 0.39 0.39 0.47 0.65
0.41 0.46 0.48 0.48 0.52 0.52 0.56 0.60 0.55 0.53 0.63 0.71 0.60 0.44 0.39 0.39 0.39 0.38 0.33 0.30 0.32 0.31 0.29 0.27 0.25 0.25 0.25 0.19 0.14 0.13 0.14 0.17 0.21 0.25 0.26 0.31 0.37 0.41 0.50 0.56 0.62 0.67 0.70
0.39 0.42 0.45 0.44 0.40 0.40 0.45 0.44 0.46 0.55 0.73 0.70 0.56 0.45 0.38 0.35 0.34 0.28 0.21 0.17 0.16 0.13 0.17 0.19 0.17 0.19 0.19 0.14 0.15 0.16 0.15 0.16 0.18 0.21 0.35 0.52 0.57 0.62 0.65 0.69 0.73 0.75 0.70
0.34 0.40 0.41 0.37 0.36 0.38 0.39 0.38 0.43 0.49 0.62 0.62 0.48 0.39 0.34 0.29 0.24 0.22 0.20 0.12 0.07 0.06 0.05 0.06 0.06 0.07 0.10 0.10 0.12 0.13 0.15 0.16 0.20 0.26 0.46 0.56 0.58 0.61 0.60 0.60 0.64 0.68 0.66

GEFSMW_prec_meanprecacc_162.txt.gz
Total_Precipitation_Accumulation
0.87 1.09 1.26 1.42 1.68 1.87 1.94 2.05 2.22 2.43 2.64 2.95 3.29 3.47 3.57 3.79 3.93 4.02 4.12 4.08 4.05 4.18 4.24 4.12 4.01 3.86 3.74 3.55 3.42 3.24 3.07 2.83 2.74 2.61 2.28 1.86 1.61 1.59 1.51 1.54 1.65 1.64 1.57
0.96 1.26 1.55 1.93 2.11 2.14 2.16 2.23 2.35 2.62 2.91 3.30 3.77 4.19 4.36 4.49 4.51 4.54 4.74 4.85 4.89 5.06 5.17 5.09 4.88 4.64 4.30 3.85 3.52 3.32 3.16 2.90 2.86 2.81 2.72 2.18 1.79 1.51 1.24 1.30 1.36 1.41 1.49
1.27 1.50 1.78 1.96 2.09 2.15 2.23 2.33 2.65 3.07 3.51 4.00 4.52 4.95 5.20 5.24 5.17 4.90 5.02 5.17 5.14 5.23 5.43 5.41 5.14 4.74 4.18 3.68 3.50 3.40 3.26 3.07 2.97 2.83 2.88 2.48 2.08 1.75 1.35 1.15 1.09 1.16 1.19
1.28 1.51 1.73 1.96 2.04 2.14 2.32 2.44 2.77 3.31 3.79 4.25 4.91 5.43 5.69 5.88 5.99 5.76 5.47 5.33 5.18 5.06 4.96 4.81 4.40 3.93 3.59 3.33 3.24 3.21 3.02 2.98 2.89 2.81 2.53 2.30 2.07 1.88 1.57 1.27 1.10 1.09 1.10
1.13 1.36 1.50 1.74 2.00 2.08 2.11 2.20 2.63 3.22 3.94 4.65 5.20 5.67 6.04 6.20 6.15 5.81 5.45 5.04 4.70 4.28 3.92 3.56 3.26 3.12 2.91 2.70 2.61 2.59 2.53 2.40 2.35 2.36 2.31 2.24 2.02 1.75 1.57 1.40 1.23 1.21 1.13
1.02 1.08 1.18 1.38 1.68 1.74 1.88 2.11 2.48 3.16 3.89 4.49 5.04 5.42 5.76 5.80 5.54 5.11 4.66 4.34 3.97 3.52 3.06 2.81 2.56 2.41 2.23 2.02 1.90 1.88 1.91 1.98 2.04 2.10 2.08 2.04 2.02 1.88 1.79 1.68 1.49 1.37 1.32
0.92 1.00 1.04 1.15 1.35 1.51 1.78 2.16 2.56 3.07 3.51 4.00 4.45 4.71 4.90 4.95 4.88 4.63 4.29 4.01 3.59 3.15 2.69 2.28 2.07 1.83 1.66 1.58 1.52 1.47 1.47 1.55 1.65 1.79 1.84 1.82 1.80 1.77 1.79 1.83 1.70 1.52 1.38
1.00 1.15 1.25 1.33 1.43 1.54 1.67 2.01 2.39 2.76 2.97 3.20 3.53 3.75 3.88 3.94 3.85 3.66 3.40 3.12 2.84 2.57 2.22 1.80 1.48 1.28 1.14 1.08 1.10 1.15 1.21 1.23 1.28 1.37 1.50 1.53 1.52 1.57 1.64 1.72 1.78 1.77 1.56
1.00 1.17 1.31 1.41 1.49 1.52 1.64 1.72 1.91 2.11 2.35 2.55 2.68 2.77 2.80 2.73 2.66 2.52 2.32 2.13 1.95 1.75 1.54 1.31 1.13 1.01 0.95 0.89 0.86 0.87 0.89 0.95 1.01 1.08 1.18 1.29 1.35 1.37 1.45 1.55 1.65 1.70 1.66
1.04 1.14 1.20 1.27 1.29 1.25 1.32 1.40 1.53 1.63 1.76 1.87 1.89 1.81 1.81 1.82 1.70 1.59 1.51 1.38 1.23 1.11 1.05 0.95 0.89 0.83 0.75 0.73 0.74 0.72 0.70 0.79 0.83 0.84 0.92 1.03 1.14 1.22 1.30 1.41 1.48 1.50 1.48
1.02 1.03 1.03 1.05 1.06 0.99 1.00 1.07 1.15 1.29 1.36 1.39 1.41 1.32 1.25 1.17 1.09 1.02 1.02 0.96 0.87 0.83 0.80 0.76 0.73 0.71 0.68 0.65 0.62 0.63 0.61 0.65 0.76 0.84 0.89 0.93 0.99 1.05 1.09 1.14 1.20 1.30 1.37
1.02 0.94 0.89 0.86 0.84 0.81 0.80 0.84 0.91 0.97 0.98 0.97 0.95 0.93 0.88 0.84 0.81 0.78 0.79 0.84 0.80 0.74 0.72 0.70 0.69 0.69 0.69 0.68 0.65 0.61 0.59 0.61 0.67 0.72 0.76 0.77 0.76 0.83 0.91 0.96 0.99 1.06 1.14
1.02 0.98 0.94 0.85 0.83 0.86 0.83 0.76 0.78 0.81 0.82 0.81 0.81 0.77 0.77 0.76 0.75 0.76 0.77 0.79 0.76 0.71 0.66 0.64 0.64 0.66 0.66 0.62 0.61 0.59 0.57 0.56 0.58 0.60 0.60 0.63 0.64 0.67 0.70 0.73 0.78 0.84 0.89
0.94 0.98 1.03 1.00 0.91 0.86 0.85 0.80 0.76 0.76 0.79 0.78 0.75 0.67 0.64 0.66 0.68 0.67 0.67 0.66 0.64 0.66 0.67 0.65 0.61 0.57 0.52 0.46 0.43 0.42 0.42 0.39 0.41 0.41 0.43 0.49 0.55 0.57 0.58 0.56 0.58 0.63 0.73
1.06 1.03 1.02 1.02 0.95 0.88 0.83 0.79 0.78 0.77 0.81 0.84 0.83 0.75 0.67 0.64 0.64 0.64 0.64 0.62 0.56 0.53 0.52 0.49 0.44 0.36 0.30 0.27 0.25 0.26 0.28 0.29 0.29 0.30 0.29 0.32 0.40 0.48 0.49 0.47 0.50 0.57 0.65
1.31 1.26 1.19 1.16 1.14 1.06 0.95 0.87 0.87 0.88 0.89 0.94 1.00 1.01 0.94 0.85 0.79 0.72 0.65 0.61 0.57 0.49 0.40 0.34 0.32 0.27 0.21 0.21 0.19 0.20 0.26 0.29 0.29 0.30 0.30 0.30 0.32 0.36 0.37 0.42 0.53 0.63 0.64
1.55 1.50 1.45 1.38 1.32 1.24 1.17 1.11 1.03 0.98 0.96 0.97 1.00 1.00 0.94 0.84 0.75 0.65 0.57 0.55 0.53 0.48 0.43 0.35 0.29 0.28 0.24 0.20 0.17 0.17 0.24 0.30 0.31 0.32 0.33 0.29 0.28 0.32 0.33 0.38 0.45 0.50 0.52
1.49 1.49 1.49 1.47 1.45 1.33 1.24 1.18 1.11 1.07 1.01 1.00 0.96 0.91 0.81 0.70 0.59 0.54 0.52 0.51 0.50 0.50 0.47 0.41 0.36 0.32 0.23 0.17 0.14 0.15 0.23 0.31 0.31 0.32 0.33 0.34 0.34 0.34 0.36 0.36 0.39 0.45 0.51
1.56 1.54 1.48 1.40 1.36 1.28 1.22 1.16 1.14 1.08 1.00 0.95 0.84 0.72 0.63 0.59 0.55 0.52 0.52 0.51 0.48 0.46 0.44 0.40 0.38 0.38 0.29 0.15 0.12 0.14 0.26 0.36 0.33 0.27 0.26 0.29 0.32 0.34 0.34 0.38 0.47 0.52 0.56
1.33 1.26 1.17 1.11 1.11 1.13 1.09 1.05 1.03 0.97 0.88 0.73 0.59 0.52 0.50 0.51 0.52 0.50 0.47 0.45 0.46 0.45 0.39 0.34 0.34 0.34 0.30 0.19 0.15 0.17 0.27 0.36 0.33 0.30 0.28 0.26 0.27 0.28 0.28 0.36 0.49 0.59 0.59
1.00 0.93 0.89 0.96 1.02 1.02 0.95 0.91 0.85 0.79 0.67 0.57 0.51 0.46 0.44 0.41 0.43 0.45 0.44 0.44 0.43 0.46 0.45 0.43 0.39 0.33 0.26 0.17 0.13 0.14 0.21 0.29 0.32 0.34 0.36 0.33 0.24 0.21 0.24 0.31 0.41 0.49 0.48
0.71 0.69 0.72 0.79 0.81 0.75 0.75 0.81 0.75 0.63 0.52 0.54 0.54 0.51 0.44 0.37 0.42 0.52 0.51 0.47 0.51 0.55 0.54 0.50 0.45 0.33 0.24 0.15 0.11 0.11 0.13 0.17 0.28 0.37 0.36 0.32 0.23 0.22 0.25 0.31 0.39 0.42 0.49
0.52 0.57 0.58 0.62 0.66 0.63 0.66 0.72 0.71 0.59 0.56 0.61 0.60 0.49 0.40 0.44 0.47 0.52 0.50 0.43 0.43 0.41 0.39 0.37 0.36 0.31 0.25 0.17 0.09 0.09 0.11 0.14 0.20 0.27 0.25 0.23 0.25 0.28 0.40 0.41 0.41 0.49 0.66
0.42 0.48 0.49 0.49 0.53 0.52 0.56 0.61 0.56 0.55 0.66 0.73 0.62 0.47 0.41 0.41 0.42 0.41 0.36 0.31 0.33 0.32 0.30 0.28 0.26 0.26 0.26 0.19 0.15 0.14 0.15 0.17 0.22 0.26 0.27 0.32 0.38 0.42 0.51 0.57 0.63 0.67 0.70
0.41 0.44 0.47 0.45 0.40 0.41 0.46 0.44 0.48 0.58 0.77 0.74 0.60 0.49 0.41 0.38 0.36 0.30 0.22 0.18 0.16 0.14 0.18 0.20 0.18 0.20 0.20 0.15 0.16 0.16 0.15 0.16 0.18 0.22 0.35 0.53 0.58 0.63 0.67 0.71 0.75 0.77 0.71
0.36 0.42 0.42 0.38 0.37 0.38 0.39 0.38 0.43 0.50 0.65 0.65 0.49 0.41 0.37 0.32 0.26 0.23 0.21 0.13 0.08 0.07 0.06 0.07 0.07 0.08 0.11 0.11 0.12 0.14 0.15 0.16 0.20 0.27 0.47 0.56 0.59 0.62 0.62 0.62 0.66 0.71 0.69

GEFSMW_prec_meanprecacc_168.txt.gz
Total_Precipitation_Accumulation
0.91 1.15 1.32 1.47 1.71 1.92 2.00 2.11 2.27 2.49 2.70 3.01 3.36 3.55 3.66 3.88 4.02 4.10 4.21 4.16 4.13 4.26 4.31 4.18 4.07 3.93 3.82 3.64 3.52 3.33 3.15 2.91 2.83 2.70 2.36 1.93 1.66 1.63 1.55 1.58 1.69 1.69 1.61
0.99 1.29 1.61 1.98 2.15 2.20 2.21 2.29 2.40 2.67 2.97 3.37 3.85 4.27 4.44 4.57 4.59 4.62 4.82 4.93 4.97 5.14 5.24 5.15 4.93 4.68 4.35 3.91 3.59 3.40 3.24 2.97 2.94 2.90 2.81 2.26 1.86 1.55 1.27 1.32 1.38 1.43 1.53
1.29 1.52 1.81 2.01 2.14 2.19 2.27 2.39 2.70 3.11 3.56 4.05 4.58 5.02 5.28 5.30 5.23 4.97 5.09 5.24 5.21 5.31 5.49 5.47 5.20 4.80 4.24 3.74 3.56 3.48 3.35 3.16 3.06 2.91 2.97 2.56 2.16 1.82 1.40 1.19 1.12 1.19 1.23
1.30 1.53 1.75 1.99 2.06 2.16 2.34 2.48 2.81 3.34 3.83 4.28 4.95 5.49 5.76 5.95 6.06 5.84 5.54 5.39 5.23 5.12 5.01 4.85 4.44 3.97 3.63 3.37 3.28 3.27 3.09 3.08 3.00 2.90 2.61 2.38 2.13 1.94 1.62 1.31 1.13 1.13 1.13
1.15 1.39 1.52 1.76 2.02 2.10 2.13 2.22 2.66 3.24 3.97 4.68 5.23 5.72 6.11 6.27 6.22 5.86 5.50 5.09 4.75 4.32 3.96 3.59 3.29 3.15 2.95 2.75 2.66 2.64 2.59 2.47 2.42 2.44 2.38 2.31 2.10 1.82 1.63 1.45 1.28 1.26 1.16
1.04 1.11 1.19 1.39 1.70 1.76 1.90 2.12 2.49 3.18 3.92 4.52 5.07 5.48 5.83 5.88 5.60 5.16 4.70 4.39 4.01 3.56 3.12 2.86 2.60 2.44 2.26 2.06 1.95 1.95 1.99 2.05 2.11 2.16 2.14 2.11 2.09 1.97 1.88 1.75 1.56 1.43 1.38
0.94 1.00 1.05 1.16 1.36 1.53 1.79 2.17 2.58 3.10 3.54 4.04 4.51 4.79 4.99 5.02 4.93 4.67 4.33 4.04 3.62 3.18 2.73 2.32 2.11 1.88 1.70 1.61 1.56 1.53 1.52 1.61 1.72 1.85 1.91 1.90 1.88 1.84 1.86 1.94 1.79 1.58 1.45
1.00 1.16 1.26 1.34 1.44 1.56 1.69 2.02 2.40 2.79 3.01 3.24 3.60 3.83 3.97 4.02 3.91 3.70 3.44 3.16 2.87 2.60 2.26 1.85 1.52 1.32 1.19 1.12 1.14 1.19 1.24 1.27 1.32 1.43 1.57 1.60 1.59 1.64 1.72 1.80 1.87 1.84 1.62
1.01 1.17 1.32 1.42 1.50 1.54 1.66 1.74 1.93 2.15 2.41 2.61 2.75 2.85 2.89 2.81 2.71 2.54 2.34 2.17 1.99 1.78 1.57 1.35 1.16 1.04 0.99 0.95 0.92 0.92 0.93 0.99 1.06 1.12 1.22 1.34 1.39 1.41 1.49 1.61 1.71 1.78 1.74
1.04 1.14 1.21 1.29 1.31 1.27 1.34 1.42 1.57 1.68 1.82 1.95 1.99 1.90 1.89 1.89 1.76 1.62 1.54 1.41 1.26 1.15 1.08 0.98 0.92 0.87 0.80 0.79 0.80 0.77 0.75 0.84 0.88 0.88 0.95 1.06 1.16 1.24 1.32 1.44 1.52 1.55 1.55
1.02 1.03 1.04 1.06 1.08 1.01 1.02 1.10 1.20 1.34 1.41 1.44 1.47 1.39 1.32 1.22 1.13 1.06 1.05 0.98 0.90 0.86 0.83 0.79 0.78 0.76 0.74 0.70 0.68 0.68 0.66 0.71 0.82 0.89 0.93 0.97 1.01 1.07 1.11 1.16 1.23 1.34 1.42
1.02 0.94 0.90 0.87 0.86 0.83 0.82 0.87 0.94 1.01 1.02 1.01 0.99 0.97 0.92 0.87 0.84 0.82 0.82 0.86 0.82 0.76 0.74 0.74 0.74 0.75 0.75 0.74 0.70 0.65 0.63 0.66 0.74 0.78 0.81 0.80 0.79 0.85 0.93 0.99 1.02 1.10 1.18
1.03 0.99 0.96 0.87 0.85 0.88 0.86 0.79 0.81 0.84 0.85 0.84 0.83 0.80 0.80 0.78 0.77 0.79 0.79 0.81 0.79 0.73 0.68 0.67 0.68 0.72 0.72 0.68 0.67 0.63 0.61 0.60 0.64 0.65 0.65 0.66 0.67 0.70 0.73 0.76 0.81 0.87 0.92
0.94 1.00 1.06 1.02 0.93 0.89 0.89 0.84 0.79 0.78 0.82 0.80 0.77 0.69 0.66 0.68 0.70 0.70 0.70 0.68 0.67 0.68 0.70 0.68 0.65 0.61 0.57 0.51 0.47 0.46 0.46 0.44 0.46 0.47 0.48 0.53 0.59 0.60 0.62 0.60 0.62 0.67 0.77
1.08 1.05 1.04 1.04 0.98 0.91 0.86 0.81 0.80 0.80 0.84 0.86 0.85 0.77 0.69 0.67 0.67 0.67 0.68 0.64 0.59 0.55 0.54 0.51 0.47 0.40 0.33 0.30 0.28 0.31 0.33 0.34 0.35 0.36 0.35 0.36 0.44 0.51 0.51 0.49 0.54 0.61 0.70
1.32 1.29 1.22 1.19 1.17 1.08 0.97 0.90 0.89 0.90 0.91 0.96 1.01 1.03 0.98 0.90 0.83 0.76 0.69 0.64 0.61 0.53 0.43 0.37 0.36 0.31 0.24 0.26 0.23 0.26 0.31 0.33 0.34 0.36 0.36 0.34 0.36 0.38 0.40 0.44 0.55 0.65 0.67
1.58 1.53 1.48 1.41 1.34 1.27 1.20 1.15 1.07 1.01 0.98 1.00 1.02 1.02 0.98 0.90 0.81 0.69 0.61 0.60 0.58 0.53 0.47 0.37 0.32 0.32 0.27 0.24 0.21 0.23 0.30 0.35 0.35 0.36 0.36 0.32 0.30 0.35 0.36 0.41 0.47 0.52 0.54
1.52 1.53 1.52 1.51 1.48 1.36 1.27 1.22 1.15 1.10 1.04 1.03 0.99 0.94 0.85 0.75 0.63 0.57 0.55 0.55 0.54 0.54 0.50 0.43 0.37 0.34 0.26 0.20 0.17 0.18 0.26 0.34 0.35 0.35 0.36 0.38 0.37 0.36 0.38 0.39 0.42 0.48 0.53
1.60 1.57 1.51 1.44 1.40 1.31 1.25 1.20 1.17 1.10 1.03 0.99 0.88 0.76 0.67 0.63 0.58 0.55 0.54 0.53 0.50 0.49 0.46 0.41 0.40 0.41 0.32 0.19 0.14 0.16 0.28 0.38 0.35 0.29 0.27 0.31 0.34 0.36 0.35 0.39 0.49 0.54 0.58
1.39 1.31 1.22 1.15 1.16 1.17 1.13 1.08 1.05 0.99 0.92 0.79 0.65 0.56 0.55 0.55 0.55 0.52 0.49 0.48 0.48 0.47 0.41 0.37 0.38 0.38 0.34 0.22 0.16 0.18 0.29 0.38 0.35 0.33 0.30 0.28 0.29 0.30 0.30 0.38 0.51 0.62 0.61
1.07 0.99 0.94 1.00 1.05 1.05 0.98 0.94 0.88 0.82 0.71 0.62 0.54 0.50 0.48 0.44 0.46 0.46 0.45 0.45 0.45 0.49 0.47 0.45 0.41 0.35 0.28 0.18 0.14 0.15 0.21 0.30 0.34 0.36 0.38 0.34 0.25 0.22 0.25 0.33 0.43 0.51 0.50
0.76 0.73 0.76 0.82 0.84 0.77 0.78 0.83 0.78 0.66 0.55 0.57 0.57 0.53 0.47 0.39 0.43 0.53 0.52 0.48 0.53 0.57 0.55 0.52 0.46 0.35 0.26 0.15 0.11 0.11 0.14 0.17 0.29 0.38 0.36 0.33 0.25 0.23 0.26 0.32 0.40 0.43 0.51
0.56 0.59 0.60 0.64 0.68 0.66 0.68 0.74 0.72 0.60 0.57 0.64 0.62 0.51 0.41 0.45 0.48 0.53 0.51 0.45 0.44 0.42 0.40 0.39 0.38 0.32 0.26 0.17 0.09 0.10 0.12 0.15 0.21 0.28 0.25 0.24 0.26 0.29 0.41 0.43 0.43 0.51 0.70
0.44 0.49 0.51 0.50 0.54 0.54 0.59 0.64 0.58 0.57 0.69 0.75 0.64 0.48 0.42 0.42 0.42 0.42 0.37 0.33 0.34 0.33 0.31 0.29 0.27 0.27 0.26 0.20 0.16 0.15 0.17 0.18 0.23 0.27 0.27 0.33 0.38 0.43 0.51 0.58 0.65 0.70 0.74
0.41 0.45 0.48 0.46 0.42 0.43 0.48 0.46 0.49 0.60 0.79 0.75 0.61 0.50 0.42 0.39 0.37 0.30 0.23 0.18 0.17 0.15 0.19 0.21 0.19 0.21 0.21 0.16 0.17 0.18 0.17 0.18 0.19 0.22 0.36 0.54 0.59 0.64 0.69 0.73 0.78 0.81 0.75
0.37 0.43 0.44 0.39 0.39 0.41 0.42 0.41 0.45 0.52 0.68 0.68 0.52 0.43 0.38 0.33 0.27 0.24 0.22 0.14 0.09 0.07 0.07 0.08 0.08 0.09 0.11 0.12 0.13 0.15 0.17 0.18 0.21 0.27 0.48 0.58 0.61 0.64 0.64 0.64 0.69 0.74 0.73

GEFSMW_prec_meanprecacc_174.txt.gz
Total_Precipitation_Accumulation
1.01 1.23 1.38 1.52 1.76 1.96 2.04 2.16 2.32 2.54 2.76 3.08 3.44 3.62 3.73 3.94 4.08 4.16 4.27 4.23 4.20 4.34 4.40 4.29 4.19 4.04 3.93 3.74 3.63 3.46 3.27 3.03 2.95 2.81 2.45 2.01 1.73 1.70 1.62 1.65 1.76 1.76 1.69
1.04 1.34 1.65 2.04 2.22 2.26 2.28 2.35 2.47 2.74 3.03 3.43 3.92 4.34 4.51 4.63 4.67 4.70 4.90 5.00 5.05 5.23 5.32 5.25 5.03 4.78 4.46 4.02 3.69 3.51 3.34 3.05 3.05 3.01 2.90 2.34 1.93 1.61 1.31 1.39 1.44 1.49 1.60
1.31 1.55 1.85 2.05 2.19 2.24 2.33 2.47 2.79 3.19 3.63 4.11 4.64 5.08 5.33 5.37 5.32 5.05 5.16 5.32 5.29 5.38 5.58 5.54 5.28 4.89 4.32 3.83 3.66 3.58 3.45 3.26 3.17 3.01 3.06 2.65 2.24 1.89 1.47 1.25 1.18 1.24 1.28
1.32 1.55 1.77 2.01 2.09 2.20 2.39 2.55 2.90 3.44 3.90 4.34 5.01 5.54 5.82 6.03 6.13 5.92 5.62 5.46 5.28 5.17 5.08 4.94 4.53 4.10 3.77 3.49 3.38 3.37 3.20 3.18 3.09 3.01 2.71 2.48 2.23 2.02 1.69 1.36 1.17 1.17 1.16
1.17 1.41 1.54 1.78 2.06 2.13 2.17 2.28 2.76 3.36 4.05 4.73 5.29 5.79 6.17 6.34 6.29 5.93 5.56 5.13 4.79 4.36 4.01 3.67 3.40 3.27 3.09 2.88 2.78 2.75 2.69 2.56 2.51 2.53 2.47 2.41 2.19 1.90 1.70 1.50 1.33 1.30 1.20
1.06 1.12 1.21 1.41 1.73 1.80 1.94 2.16 2.55 3.24 3.98 4.58 5.13 5.55 5.92 5.97 5.68 5.23 4.75 4.44 4.07 3.62 3.17 2.91 2.67 2.52 2.36 2.15 2.04 2.04 2.08 2.15 2.20 2.24 2.21 2.18 2.16 2.04 1.95 1.81 1.62 1.48 1.42
0.94 1.02 1.06 1.17 1.39 1.56 1.83 2.20 2.62 3.15 3.60 4.10 4.58 4.86 5.09 5.12 5.02 4.74 4.39 4.11 3.69 3.25 2.79 2.37 2.16 1.95 1.77 1.67 1.61 1.58 1.60 1.69 1.80 1.92 1.97 1.97 1.94 1.91 1.94 2.01 1.86 1.64 1.50
1.00 1.16 1.27 1.36 1.46 1.59 1.74 2.07 2.45 2.85 3.06 3.29 3.66 3.91 4.05 4.11 4.01 3.79 3.51 3.24 2.95 2.67 2.32 1.90 1.57 1.37 1.23 1.17 1.20 1.25 1.30 1.33 1.39 1.50 1.65 1.68 1.66 1.72 1.79 1.88 1.95 1.92 1.69
1.01 1.17 1.32 1.43 1.51 1.56 1.69 1.78 1.97 2.20 2.46 2.66 2.81 2.93 2.98 2.91 2.83 2.63 2.41 2.24 2.07 1.85 1.63 1.40 1.19 1.07 1.02 0.99 0.98 0.98 0.99 1.06 1.13 1.20 1.31 1.44 1.49 1.52 1.59 1.70 1.80 1.87 1.82
1.04 1.15 1.21 1.29 1.31 1.29 1.36 1.46 1.62 1.74 1.89 2.02 2.07 1.98 1.97 1.96 1.82 1.67 1.57 1.45 1.29 1.18 1.12 1.02 0.96 0.89 0.82 0.83 0.85 0.82 0.81 0.90 0.93 0.94 1.02 1.13 1.23 1.32 1.42 1.54 1.62 1.65 1.65
1.02 1.04 1.04 1.07 1.10 1.03 1.04 1.14 1.26 1.43 1.52 1.54 1.55 1.47 1.39 1.27 1.17 1.09 1.07 1.00 0.93 0.89 0.87 0.83 0.82 0.79 0.77 0.75 0.73 0.72 0.70 0.76 0.87 0.95 1.00 1.04 1.08 1.14 1.18 1.24 1.32 1.43 1.51
1.03 0.95 0.91 0.89 0.88 0.85 0.86 0.92 1.00 1.07 1.10 1.10 1.06 1.04 0.98 0.91 0.87 0.85 0.85 0.89 0.86 0.80 0.79 0.77 0.78 0.79 0.80 0.80 0.75 0.69 0.67 0.71 0.79 0.85 0.88 0.89 0.88 0.94 1.00 1.07 1.10 1.18 1.27
1.04 1.00 0.96 0.88 0.86 0.90 0.88 0.83 0.85 0.88 0.90 0.90 0.88 0.85 0.84 0.82 0.81 0.83 0.85 0.86 0.83 0.78 0.73 0.70 0.71 0.76 0.76 0.73 0.72 0.68 0.66 0.65 0.69 0.72 0.72 0.74 0.76 0.78 0.81 0.85 0.91 0.96 1.00
0.96 1.01 1.07 1.03 0.95 0.91 0.93 0.88 0.84 0.82 0.86 0.84 0.81 0.74 0.70 0.71 0.73 0.74 0.74 0.73 0.71 0.72 0.74 0.72 0.68 0.65 0.61 0.55 0.51 0.50 0.51 0.50 0.52 0.54 0.56 0.62 0.68 0.69 0.71 0.70 0.72 0.76 0.85
1.10 1.08 1.06 1.06 1.00 0.94 0.91 0.86 0.86 0.85 0.90 0.93 0.91 0.82 0.74 0.72 0.71 0.72 0.71 0.68 0.63 0.59 0.58 0.55 0.51 0.43 0.37 0.34 0.32 0.35 0.37 0.39 0.40 0.42 0.42 0.43 0.50 0.56 0.56 0.54 0.60 0.68 0.77
1.35 1.32 1.26 1.22 1.19 1.12 1.02 0.95 0.97 0.99 0.99 1.03 1.10 1.11 1.04 0.96 0.89 0.81 0.74 0.71 0.69 0.60 0.50 0.44 0.41 0.35 0.27 0.28 0.25 0.28 0.34 0.38 0.39 0.41 0.43 0.39 0.40 0.42 0.43 0.46 0.57 0.68 0.71
1.61 1.57 1.51 1.44 1.37 1.31 1.26 1.21 1.14 1.10 1.08 1.10 1.11 1.09 1.06 0.99 0.89 0.79 0.70 0.70 0.68 0.63 0.55 0.43 0.37 0.36 0.30 0.25 0.23 0.26 0.34 0.40 0.40 0.40 0.41 0.35 0.34 0.39 0.41 0.44 0.50 0.55 0.56
1.56 1.56 1.56 1.55 1.53 1.41 1.33 1.30 1.24 1.18 1.12 1.13 1.09 1.03 0.92 0.82 0.69 0.65 0.64 0.63 0.60 0.60 0.56 0.49 0.42 0.38 0.29 0.22 0.19 0.21 0.30 0.39 0.39 0.38 0.40 0.42 0.41 0.41 0.42 0.43 0.46 0.52 0.57
1.65 1.61 1.56 1.50 1.46 1.38 1.32 1.27 1.26 1.20 1.14 1.09 0.98 0.86 0.79 0.73 0.66 0.62 0.60 0.58 0.56 0.54 0.52 0.48 0.45 0.45 0.36 0.21 0.16 0.18 0.32 0.42 0.38 0.32 0.30 0.33 0.37 0.39 0.38 0.42 0.52 0.57 0.62
1.46 1.38 1.28 1.21 1.23 1.24 1.21 1.15 1.13 1.08 1.02 0.87 0.71 0.62 0.62 0.63 0.61 0.57 0.53 0.52 0.53 0.52 0.45 0.41 0.42 0.41 0.37 0.24 0.19 0.20 0.32 0.41 0.38 0.35 0.32 0.29 0.30 0.31 0.31 0.40 0.54 0.64 0.64
1.12 1.04 0.99 1.05 1.11 1.11 1.04 1.01 0.95 0.89 0.80 0.71 0.59 0.55 0.54 0.51 0.50 0.51 0.50 0.50 0.49 0.53 0.52 0.49 0.45 0.38 0.29 0.20 0.15 0.16 0.22 0.32 0.37 0.39 0.40 0.35 0.26 0.23 0.26 0.34 0.45 0.53 0.52
0.81 0.78 0.80 0.86 0.88 0.83 0.83 0.90 0.86 0.74 0.64 0.67 0.62 0.58 0.52 0.44 0.47 0.57 0.55 0.53 0.56 0.60 0.59 0.55 0.50 0.37 0.27 0.16 0.12 0.13 0.15 0.18 0.30 0.40 0.38 0.34 0.25 0.23 0.27 0.33 0.42 0.45 0.52
0.60 0.63 0.63 0.67 0.72 0.70 0.74 0.79 0.79 0.66 0.64 0.71 0.68 0.57 0.47 0.51 0.53 0.57 0.54 0.48 0.47 0.44 0.41 0.41 0.40 0.34 0.27 0.19 0.11 0.12 0.14 0.17 0.22 0.29 0.26 0.25 0.27 0.30 0.42 0.44 0.43 0.53 0.72
0.46 0.52 0.54 0.54 0.58 0.58 0.63 0.68 0.62 0.61 0.74 0.81 0.71 0.55 0.48 0.47 0.47 0.45 0.39 0.34 0.35 0.33 0.32 0.30 0.29 0.29 0.29 0.22 0.18 0.18 0.19 0.21 0.24 0.28 0.28 0.34 0.40 0.45 0.53 0.60 0.67 0.73 0.78
0.43 0.47 0.50 0.49 0.45 0.46 0.52 0.49 0.52 0.64 0.84 0.81 0.66 0.53 0.44 0.41 0.38 0.32 0.24 0.19 0.18 0.15 0.20 0.22 0.20 0.23 0.23 0.19 0.19 0.19 0.19 0.20 0.21 0.24 0.38 0.57 0.63 0.68 0.73 0.77 0.82 0.86 0.80
0.39 0.45 0.46 0.42 0.42 0.45 0.46 0.45 0.48 0.55 0.72 0.72 0.54 0.44 0.39 0.34 0.28 0.25 0.24 0.16 0.11 0.09 0.09 0.09 0.10 0.11 0.13 0.14 0.15 0.17 0.18 0.19 0.22 0.29 0.50 0.61 0.64 0.69 0.69 0.69 0.74 0.80 0.79

GEFSMW_prec_meanprecacc_180.txt.gz
Total_Precipitation_Accumulation
1.04 1.28 1.47 1.66 1.91 2.08 2.15 2.29 2.52 2.78 2.96 3.27 3.61 3.77 3.85 4.04 4.16 4.24 4.34 4.31 4.28 4.40 4.46 4.34 4.23 4.08 3.96 3.80 3.70 3.53 3.33 3.10 3.02 2.87 2.50 2.05 1.76 1.72 1.64 1.68 1.80 1.80 1.73
1.08 1.38 1.71 2.13 2.33 2.40 2.41 2.56 2.79 3.00 3.19 3.59 4.09 4.50 4.64 4.74 4.77 4.79 4.98 5.08 5.12 5.30 5.37 5.30 5.07 4.82 4.50 4.06 3.74 3.55 3.39 3.10 3.11 3.06 2.95 2.38 1.96 1.63 1.33 1.41 1.47 1.53 1.64
1.34 1.58 1.88 2.12 2.29 2.39 2.49 2.68 2.98 3.33 3.76 4.26 4.77 5.19 5.44 5.49 5.42 5.14 5.24 5.40 5.37 5.44 5.63 5.59 5.32 4.94 4.38 3.88 3.71 3.63 3.50 3.31 3.23 3.08 3.12 2.68 2.26 1.91 1.49 1.27 1.20 1.26 1.30
1.35 1.58 1.81 2.07 2.17 2.33 2.56 2.74 3.06 3.62 4.08 4.47 5.12 5.65 5.94 6.14 6.23 5.99 5.68 5.52 5.34 5.22 5.14 4.99 4.58 4.15 3.83 3.57 3.47 3.46 3.28 3.25 3.15 3.07 2.77 2.53 2.27 2.05 1.71 1.38 1.19 1.19 1.19
1.21 1.48 1.59 1.83 2.12 2.25 2.35 2.50 2.96 3.56 4.26 4.91 5.44 5.92 6.30 6.47 6.41 6.02 5.64 5.20 4.84 4.42 4.08 3.74 3.48 3.36 3.18 2.98 2.88 2.85 2.79 2.65 2.59 2.59 2.54 2.47 2.24 1.94 1.73 1.52 1.34 1.32 1.21
1.11 1.20 1.29 1.46 1.79 1.91 2.12 2.33 2.69 3.39 4.13 4.77 5.32 5.72 6.05 6.08 5.77 5.30 4.82 4.51 4.14 3.68 3.25 3.01 2.76 2.61 2.45 2.25 2.15 2.14 2.20 2.26 2.29 2.32 2.28 2.24 2.20 2.07 1.99 1.84 1.64 1.50 1.45
0.98 1.07 1.10 1.24 1.45 1.63 1.92 2.28 2.71 3.26 3.70 4.22 4.71 4.98 5.19 5.22 5.11 4.81 4.45 4.17 3.75 3.33 2.88 2.45 2.23 2.00 1.81 1.70 1.64 1.62 1.65 1.77 1.88 1.99 2.02 2.01 1.97 1.93 1.96 2.03 1.88 1.67 1.53
1.03 1.19 1.30 1.38 1.50 1.63 1.79 2.12 2.52 2.92 3.14 3.39 3.77 4.02 4.15 4.22 4.11 3.88 3.57 3.30 3.02 2.75 2.39 1.96 1.61 1.39 1.25 1.19 1.22 1.27 1.32 1.36 1.45 1.57 1.70 1.72 1.69 1.74 1.81 1.91 1.98 1.94 1.71
1.05 1.21 1.36 1.46 1.55 1.60 1.74 1.84 2.04 2.25 2.51 2.73 2.90 3.03 3.08 3.02 2.92 2.71 2.48 2.30 2.13 1.91 1.68 1.43 1.22 1.10 1.04 1.01 1.01 1.01 1.01 1.08 1.17 1.26 1.37 1.49 1.52 1.55 1.63 1.74 1.84 1.90 1.85
1.08 1.18 1.25 1.32 1.36 1.35 1.43 1.53 1.67 1.79 1.94 2.08 2.14 2.06 2.06 2.04 1.91 1.74 1.64 1.51 1.34 1.22 1.15 1.05 0.98 0.91 0.84 0.84 0.87 0.84 0.83 0.93 0.97 0.98 1.06 1.17 1.27 1.36 1.45 1.59 1.68 1.71 1.71
1.06 1.08 1.09 1.10 1.13 1.08 1.11 1.19 1.33 1.52 1.60 1.59 1.60 1.53 1.46 1.34 1.24 1.16 1.14 1.07 0.97 0.92 0.90 0.86 0.84 0.81 0.79 0.77 0.75 0.74 0.72 0.79 0.91 0.98 1.03 1.07 1.11 1.17 1.22 1.28 1.36 1.48 1.57
1.08 1.01 0.96 0.92 0.90 0.88 0.88 0.96 1.06 1.15 1.17 1.16 1.12 1.10 1.05 0.99 0.95 0.93 0.91 0.94 0.90 0.83 0.82 0.80 0.80 0.81 0.82 0.82 0.78 0.71 0.69 0.74 0.82 0.88 0.91 0.91 0.92 0.97 1.04 1.11 1.14 1.22 1.33
1.10 1.06 1.00 0.91 0.89 0.92 0.90 0.87 0.92 0.96 0.97 0.99 0.94 0.91 0.93 0.92 0.90 0.91 0.91 0.92 0.88 0.82 0.77 0.73 0.75 0.80 0.80 0.77 0.74 0.69 0.69 0.68 0.72 0.74 0.75 0.77 0.80 0.81 0.85 0.88 0.94 1.00 1.05
1.01 1.06 1.11 1.07 0.99 0.95 0.95 0.91 0.88 0.90 0.96 0.95 0.88 0.78 0.75 0.78 0.81 0.80 0.81 0.80 0.77 0.77 0.77 0.76 0.72 0.70 0.66 0.58 0.53 0.52 0.53 0.52 0.54 0.56 0.58 0.64 0.71 0.71 0.73 0.72 0.75 0.81 0.89
1.12 1.11 1.10 1.09 1.04 1.00 0.98 0.90 0.89 0.92 1.05 1.04 0.98 0.88 0.79 0.78 0.78 0.77 0.77 0.74 0.70 0.65 0.63 0.61 0.57 0.48 0.40 0.37 0.35 0.38 0.40 0.42 0.44 0.45 0.44 0.45 0.51 0.58 0.58 0.56 0.63 0.73 0.83
1.36 1.33 1.28 1.26 1.23 1.17 1.15 1.05 1.04 1.06 1.08 1.14 1.19 1.18 1.09 1.02 0.98 0.89 0.80 0.77 0.74 0.65 0.55 0.49 0.47 0.40 0.31 0.31 0.28 0.30 0.36 0.40 0.41 0.43 0.44 0.41 0.42 0.43 0.43 0.47 0.60 0.74 0.77
1.62 1.58 1.53 1.46 1.40 1.34 1.32 1.29 1.22 1.19 1.17 1.18 1.20 1.17 1.12 1.06 1.00 0.90 0.79 0.77 0.76 0.72 0.66 0.54 0.46 0.43 0.35 0.28 0.25 0.28 0.36 0.41 0.42 0.41 0.41 0.36 0.35 0.39 0.41 0.46 0.53 0.60 0.62
1.58 1.58 1.59 1.57 1.55 1.44 1.37 1.34 1.29 1.24 1.21 1.21 1.16 1.09 1.00 0.91 0.82 0.79 0.75 0.72 0.69 0.69 0.66 0.58 0.51 0.43 0.32 0.23 0.20 0.22 0.32 0.40 0.41 0.41 0.42 0.44 0.43 0.42 0.44 0.45 0.48 0.57 0.63
1.69 1.65 1.59 1.53 1.49 1.41 1.36 1.32 1.31 1.28 1.21 1.18 1.07 0.93 0.87 0.83 0.75 0.72 0.67 0.63 0.60 0.58 0.55 0.50 0.47 0.46 0.37 0.22 0.17 0.19 0.33 0.43 0.41 0.35 0.33 0.37 0.41 0.43 0.42 0.45 0.56 0.62 0.67
1.54 1.43 1.32 1.25 1.27 1.28 1.25 1.22 1.19 1.14 1.08 0.93 0.78 0.69 0.70 0.71 0.66 0.62 0.58 0.55 0.54 0.53 0.46 0.42 0.42 0.42 0.38 0.25 0.20 0.22 0.33 0.43 0.40 0.36 0.34 0.32 0.33 0.34 0.35 0.44 0.57 0.68 0.68
1.17 1.09 1.04 1.09 1.15 1.15 1.09 1.06 1.00 0.94 0.86 0.78 0.67 0.62 0.59 0.56 0.55 0.53 0.53 0.52 0.50 0.54 0.52 0.50 0.45 0.39 0.30 0.21 0.17 0.19 0.26 0.36 0.39 0.40 0.41 0.37 0.27 0.25 0.28 0.37 0.48 0.57 0.54
0.85 0.83 0.85 0.90 0.92 0.87 0.88 0.95 0.90 0.78 0.70 0.74 0.70 0.65 0.56 0.48 0.49 0.59 0.57 0.54 0.58 0.61 0.60 0.56 0.50 0.38 0.29 0.18 0.15 0.17 0.21 0.24 0.34 0.43 0.41 0.37 0.29 0.27 0.30 0.36 0.45 0.48 0.55
0.63 0.67 0.67 0.70 0.76 0.75 0.78 0.83 0.82 0.72 0.71 0.78 0.76 0.64 0.52 0.55 0.56 0.60 0.57 0.50 0.49 0.45 0.42 0.42 0.42 0.36 0.29 0.22 0.16 0.18 0.20 0.22 0.26 0.32 0.29 0.28 0.30 0.33 0.45 0.46 0.46 0.55 0.74
0.48 0.55 0.56 0.56 0.60 0.62 0.66 0.70 0.64 0.64 0.79 0.86 0.78 0.61 0.51 0.50 0.50 0.49 0.42 0.36 0.36 0.35 0.34 0.33 0.31 0.32 0.32 0.27 0.22 0.22 0.23 0.24 0.27 0.30 0.30 0.35 0.42 0.47 0.55 0.62 0.70 0.75 0.80
0.45 0.49 0.52 0.50 0.47 0.49 0.54 0.51 0.53 0.66 0.88 0.84 0.70 0.57 0.46 0.43 0.41 0.34 0.26 0.22 0.20 0.18 0.23 0.24 0.22 0.26 0.26 0.21 0.21 0.22 0.22 0.22 0.22 0.25 0.39 0.58 0.64 0.70 0.75 0.79 0.84 0.88 0.83
0.41 0.47 0.48 0.43 0.43 0.46 0.48 0.47 0.49 0.57 0.75 0.75 0.57 0.46 0.40 0.36 0.30 0.27 0.25 0.17 0.12 0.10 0.09 0.10 0.11 0.12 0.14 0.15 0.16 0.18 0.20 0.21 0.24 0.30 0.51 0.62 0.66 0.71 0.72 0.72 0.77 0.82 0.82

GEFSMW_prec_meanprecacc_186.txt.gz
Total_Precipitation_Accumulation
1.10 1.34 1.55 1.77 2.03 2.21 2.29 2.44 2.70 2.98 3.18 3.48 3.81 3.98 4.04 4.23 4.34 4.38 4.47 4.43 4.39 4.51 4.57 4.44 4.32 4.16 4.04 3.86 3.75 3.58 3.38 3.14 3.06 2.90 2.52 2.06 1.77 1.74 1.66 1.70 1.83 1.83 1.77
1.12 1.44 1.78 2.21 2.43 2.53 2.54 2.73 3.00 3.23 3.42 3.78 4.25 4.65 4.79 4.88 4.90 4.92 5.12 5.21 5.24 5.39 5.46 5.38 5.16 4.92 4.60 4.15 3.80 3.60 3.43 3.14 3.14 3.09 2.97 2.39 1.97 1.64 1.34 1.42 1.49 1.55 1.66
1.38 1.62 1.93 2.18 2.37 2.47 2.58 2.79 3.17 3.55 3.96 4.42 4.92 5.31 5.56 5.59 5.52 5.25 5.38 5.56 5.50 5.54 5.69 5.64 5.39 5.02 4.46 3.96 3.78 3.69 3.56 3.36 3.27 3.11 3.15 2.71 2.28 1.92 1.50 1.28 1.20 1.27 1.32
1.39 1.63 1.85 2.11 2.22 2.38 2.62 2.83 3.17 3.76 4.22 4.61 5.25 5.78 6.06 6.26 6.36 6.14 5.84 5.66 5.47 5.34 5.22 5.05 4.64 4.21 3.89 3.62 3.52 3.53 3.35 3.31 3.20 3.12 2.81 2.57 2.31 2.09 1.74 1.40 1.21 1.20 1.21
1.27 1.53 1.62 1.86 2.15 2.28 2.40 2.60 3.07 3.66 4.36 5.01 5.55 6.03 6.43 6.64 6.58 6.17 5.76 5.29 4.94 4.53 4.18 3.82 3.54 3.44 3.26 3.04 2.93 2.90 2.85 2.70 2.63 2.64 2.59 2.52 2.28 1.98 1.77 1.55 1.37 1.34 1.24
1.16 1.25 1.33 1.49 1.82 1.95 2.16 2.40 2.77 3.47 4.21 4.84 5.43 5.85 6.21 6.26 5.95 5.43 4.92 4.60 4.22 3.76 3.32 3.09 2.84 2.69 2.52 2.30 2.17 2.16 2.22 2.30 2.33 2.36 2.34 2.30 2.27 2.13 2.03 1.87 1.66 1.52 1.46
1.02 1.11 1.14 1.28 1.50 1.67 1.96 2.32 2.77 3.31 3.77 4.30 4.80 5.08 5.31 5.38 5.30 4.98 4.56 4.25 3.82 3.40 2.95 2.51 2.29 2.05 1.85 1.73 1.66 1.64 1.67 1.79 1.91 2.02 2.06 2.05 2.02 1.99 2.01 2.07 1.90 1.68 1.54
1.07 1.23 1.32 1.42 1.55 1.68 1.84 2.18 2.58 2.98 3.21 3.47 3.86 4.11 4.24 4.30 4.18 3.94 3.62 3.35 3.07 2.81 2.47 2.02 1.66 1.44 1.29 1.22 1.24 1.29 1.34 1.39 1.47 1.60 1.73 1.76 1.72 1.79 1.87 1.95 2.02 1.97 1.73
1.09 1.24 1.39 1.51 1.61 1.68 1.85 1.95 2.14 2.34 2.58 2.80 2.98 3.11 3.15 3.07 2.96 2.75 2.52 2.33 2.16 1.94 1.72 1.48 1.26 1.13 1.08 1.05 1.05 1.04 1.05 1.11 1.20 1.28 1.40 1.53 1.56 1.59 1.66 1.77 1.88 1.94 1.88
1.10 1.20 1.28 1.39 1.45 1.43 1.53 1.62 1.79 1.87 1.99 2.13 2.18 2.11 2.10 2.08 1.93 1.77 1.67 1.54 1.38 1.27 1.20 1.10 1.03 0.96 0.88 0.88 0.91 0.88 0.86 0.96 1.00 1.02 1.11 1.22 1.32 1.40 1.48 1.61 1.70 1.74 1.74
1.07 1.09 1.11 1.16 1.20 1.14 1.15 1.24 1.38 1.58 1.66 1.65 1.66 1.58 1.51 1.38 1.27 1.19 1.16 1.09 1.03 1.00 0.96 0.93 0.89 0.85 0.83 0.80 0.78 0.77 0.75 0.82 0.94 1.02 1.07 1.12 1.15 1.21 1.25 1.30 1.38 1.50 1.60
1.10 1.03 0.98 0.95 0.95 0.91 0.92 0.99 1.09 1.18 1.22 1.23 1.19 1.18 1.12 1.04 0.99 0.97 0.95 0.97 0.93 0.88 0.88 0.86 0.85 0.84 0.85 0.85 0.81 0.75 0.72 0.76 0.85 0.91 0.95 0.96 0.96 0.99 1.06 1.14 1.17 1.25 1.36
1.12 1.08 1.02 0.94 0.92 0.95 0.93 0.89 0.93 0.98 1.01 1.03 1.00 0.97 1.00 0.97 0.94 0.95 0.96 0.95 0.91 0.86 0.82 0.77 0.79 0.84 0.84 0.81 0.78 0.74 0.72 0.70 0.74 0.77 0.78 0.80 0.85 0.85 0.86 0.90 0.96 1.02 1.08
1.05 1.09 1.14 1.10 1.01 0.97 0.97 0.93 0.89 0.92 1.02 0.99 0.92 0.83 0.79 0.81 0.84 0.86 0.87 0.85 0.81 0.80 0.80 0.78 0.75 0.74 0.69 0.61 0.56 0.56 0.57 0.56 0.57 0.59 0.61 0.68 0.75 0.74 0.75 0.74 0.76 0.82 0.91
1.16 1.15 1.13 1.12 1.06 1.01 1.00 0.92 0.91 0.93 1.07 1.08 1.02 0.93 0.84 0.82 0.84 0.83 0.81 0.77 0.73 0.68 0.65 0.63 0.60 0.51 0.43 0.39 0.38 0.41 0.43 0.45 0.46 0.48 0.47 0.49 0.57 0.63 0.61 0.58 0.64 0.75 0.85
1.39 1.36 1.31 1.29 1.26 1.19 1.16 1.06 1.05 1.07 1.11 1.17 1.24 1.25 1.18 1.09 1.05 0.96 0.85 0.81 0.77 0.67 0.57 0.52 0.51 0.44 0.35 0.36 0.33 0.35 0.41 0.45 0.46 0.47 0.48 0.45 0.46 0.46 0.45 0.49 0.61 0.75 0.78
1.66 1.62 1.57 1.50 1.42 1.36 1.34 1.31 1.24 1.20 1.21 1.24 1.27 1.24 1.23 1.20 1.12 1.00 0.86 0.81 0.78 0.74 0.70 0.60 0.54 0.53 0.47 0.40 0.35 0.37 0.44 0.49 0.47 0.46 0.46 0.40 0.38 0.42 0.43 0.47 0.54 0.61 0.63
1.62 1.63 1.62 1.60 1.58 1.46 1.39 1.37 1.32 1.27 1.26 1.27 1.26 1.22 1.12 1.06 0.97 0.90 0.85 0.77 0.72 0.72 0.71 0.66 0.61 0.53 0.42 0.32 0.28 0.28 0.37 0.46 0.46 0.45 0.46 0.48 0.47 0.44 0.46 0.46 0.50 0.59 0.65
1.72 1.68 1.63 1.56 1.51 1.43 1.38 1.35 1.35 1.31 1.29 1.26 1.17 1.07 0.99 0.95 0.87 0.83 0.76 0.68 0.61 0.60 0.57 0.54 0.51 0.49 0.39 0.24 0.19 0.21 0.36 0.46 0.43 0.37 0.36 0.39 0.44 0.45 0.43 0.47 0.58 0.65 0.70
1.57 1.46 1.34 1.28 1.29 1.30 1.28 1.26 1.27 1.24 1.19 1.02 0.85 0.77 0.79 0.79 0.75 0.70 0.62 0.57 0.56 0.55 0.48 0.43 0.43 0.43 0.39 0.26 0.21 0.23 0.35 0.44 0.41 0.38 0.36 0.36 0.37 0.37 0.38 0.47 0.61 0.71 0.71
1.21 1.12 1.05 1.11 1.17 1.17 1.11 1.09 1.06 1.03 0.95 0.87 0.74 0.69 0.68 0.62 0.60 0.58 0.57 0.54 0.51 0.54 0.53 0.50 0.46 0.39 0.31 0.22 0.18 0.20 0.27 0.37 0.41 0.41 0.43 0.39 0.31 0.28 0.31 0.41 0.52 0.61 0.59
0.89 0.85 0.86 0.91 0.94 0.89 0.91 0.98 0.96 0.85 0.77 0.81 0.76 0.71 0.62 0.51 0.52 0.61 0.59 0.55 0.58 0.62 0.60 0.56 0.50 0.38 0.30 0.19 0.16 0.19 0.23 0.27 0.37 0.45 0.43 0.39 0.31 0.29 0.33 0.40 0.48 0.52 0.60
0.66 0.69 0.68 0.71 0.78 0.78 0.82 0.88 0.87 0.76 0.74 0.81 0.79 0.67 0.55 0.56 0.57 0.60 0.57 0.50 0.49 0.46 0.43 0.42 0.42 0.37 0.30 0.23 0.18 0.21 0.23 0.25 0.29 0.34 0.31 0.29 0.31 0.34 0.46 0.49 0.48 0.57 0.78
0.49 0.56 0.58 0.57 0.62 0.65 0.70 0.75 0.68 0.66 0.80 0.88 0.79 0.63 0.53 0.51 0.50 0.49 0.42 0.37 0.37 0.36 0.35 0.33 0.32 0.33 0.34 0.29 0.25 0.25 0.26 0.27 0.29 0.31 0.31 0.36 0.43 0.47 0.55 0.63 0.72 0.77 0.83
0.46 0.50 0.53 0.51 0.49 0.52 0.58 0.54 0.55 0.67 0.89 0.86 0.72 0.58 0.47 0.43 0.41 0.34 0.27 0.22 0.21 0.19 0.23 0.25 0.23 0.27 0.27 0.23 0.23 0.24 0.23 0.24 0.24 0.25 0.39 0.59 0.65 0.71 0.76 0.81 0.86 0.92 0.86
0.42 0.49 0.49 0.44 0.45 0.48 0.50 0.48 0.50 0.58 0.77 0.77 0.58 0.47 0.41 0.36 0.30 0.27 0.26 0.18 0.13 0.11 0.09 0.11 0.12 0.13 0.15 0.15 0.16 0.18 0.21 0.22 0.25 0.30 0.51 0.63 0.67 0.73 0.74 0.74 0.79 0.85 0.86

GEFSMW_prec_meanprecacc_192.txt.gz
Total_Precipitation_Accumulation
1.11 1.36 1.59 1.81 2.07 2.24 2.32 2.49 2.76 3.05 3.26 3.57 3.89 4.04 4.10 4.29 4.41 4.45 4.52 4.52 4.51 4.61 4.67 4.55 4.44 4.27 4.14 3.95 3.85 3.66 3.46 3.21 3.12 2.96 2.58 2.10 1.80 1.77 1.70 1.74 1.88 1.89 1.83
1.14 1.47 1.82 2.27 2.48 2.56 2.57 2.77 3.05 3.29 3.48 3.86 4.31 4.70 4.85 4.94 4.97 4.99 5.19 5.31 5.34 5.49 5.55 5.48 5.26 5.03 4.73 4.26 3.89 3.67 3.49 3.19 3.22 3.17 3.04 2.44 2.01 1.66 1.36 1.44 1.52 1.59 1.72
1.41 1.65 1.98 2.23 2.41 2.50 2.61 2.83 3.22 3.60 4.01 4.49 4.97 5.36 5.63 5.66 5.58 5.31 5.45 5.63 5.57 5.63 5.80 5.76 5.52 5.16 4.59 4.07 3.88 3.77 3.64 3.43 3.34 3.19 3.24 2.78 2.33 1.96 1.52 1.30 1.23 1.31 1.37
1.42 1.66 1.89 2.14 2.25 2.41 2.65 2.86 3.21 3.81 4.27 4.66 5.30 5.83 6.12 6.32 6.43 6.22 5.95 5.77 5.56 5.44 5.33 5.15 4.74 4.33 4.00 3.71 3.60 3.60 3.43 3.39 3.27 3.18 2.89 2.64 2.37 2.15 1.78 1.43 1.25 1.25 1.26
1.30 1.56 1.65 1.88 2.17 2.29 2.42 2.62 3.10 3.69 4.38 5.03 5.59 6.07 6.49 6.71 6.65 6.26 5.87 5.38 5.02 4.61 4.26 3.90 3.63 3.54 3.37 3.16 3.04 2.97 2.89 2.76 2.70 2.71 2.66 2.60 2.35 2.05 1.83 1.61 1.43 1.40 1.31
1.20 1.28 1.35 1.50 1.83 1.95 2.17 2.41 2.79 3.49 4.23 4.87 5.48 5.90 6.26 6.32 6.01 5.49 4.98 4.66 4.28 3.83 3.39 3.15 2.92 2.79 2.62 2.39 2.25 2.22 2.27 2.36 2.39 2.42 2.40 2.37 2.34 2.19 2.09 1.94 1.72 1.59 1.54
1.06 1.14 1.16 1.30 1.51 1.69 1.98 2.35 2.81 3.34 3.79 4.32 4.82 5.12 5.37 5.44 5.35 5.03 4.60 4.29 3.87 3.46 3.01 2.58 2.35 2.11 1.91 1.80 1.73 1.69 1.72 1.84 1.97 2.09 2.13 2.12 2.08 2.04 2.07 2.13 1.96 1.73 1.59
1.10 1.25 1.35 1.45 1.57 1.71 1.88 2.24 2.68 3.05 3.23 3.48 3.88 4.16 4.30 4.37 4.25 4.01 3.67 3.38 3.11 2.85 2.52 2.09 1.73 1.50 1.35 1.29 1.32 1.35 1.39 1.44 1.53 1.65 1.79 1.82 1.79 1.85 1.92 2.00 2.06 2.01 1.76
1.12 1.28 1.42 1.55 1.66 1.72 1.89 2.01 2.22 2.40 2.61 2.82 3.00 3.15 3.19 3.12 3.02 2.81 2.57 2.37 2.18 1.96 1.74 1.52 1.33 1.21 1.15 1.12 1.11 1.11 1.11 1.16 1.25 1.34 1.46 1.59 1.62 1.65 1.73 1.83 1.93 1.99 1.92
1.14 1.24 1.31 1.45 1.53 1.50 1.58 1.66 1.83 1.90 2.02 2.16 2.21 2.14 2.14 2.12 1.97 1.80 1.71 1.57 1.41 1.29 1.23 1.13 1.07 1.02 0.95 0.96 0.99 0.95 0.93 1.01 1.05 1.06 1.15 1.28 1.38 1.46 1.54 1.66 1.76 1.80 1.79
1.11 1.12 1.14 1.20 1.26 1.21 1.23 1.30 1.43 1.62 1.70 1.68 1.69 1.61 1.55 1.43 1.32 1.22 1.19 1.13 1.06 1.03 0.99 0.96 0.93 0.91 0.89 0.87 0.85 0.84 0.82 0.86 0.98 1.07 1.12 1.18 1.22 1.31 1.35 1.37 1.44 1.56 1.66
1.14 1.05 1.00 0.98 0.98 0.96 0.96 1.03 1.11 1.21 1.25 1.25 1.22 1.21 1.16 1.07 1.03 0.99 0.97 1.00 0.96 0.91 0.91 0.91 0.90 0.89 0.91 0.92 0.87 0.79 0.76 0.80 0.88 0.95 1.00 1.01 1.02 1.07 1.17 1.24 1.24 1.31 1.42
1.15 1.10 1.04 0.96 0.94 0.98 0.96 0.92 0.96 1.01 1.03 1.05 1.02 1.00 1.03 1.00 0.97 0.98 0.99 0.99 0.95 0.90 0.86 0.82 0.84 0.89 0.90 0.86 0.83 0.78 0.75 0.74 0.77 0.80 0.82 0.84 0.88 0.89 0.93 0.99 1.04 1.08 1.13
1.09 1.12 1.16 1.12 1.05 1.01 1.00 0.95 0.92 0.94 1.03 1.01 0.95 0.87 0.83 0.85 0.88 0.90 0.91 0.88 0.85 0.85 0.86 0.84 0.82 0.80 0.75 0.65 0.60 0.59 0.60 0.59 0.60 0.61 0.64 0.71 0.79 0.78 0.80 0.80 0.84 0.89 0.98
1.25 1.19 1.14 1.15 1.11 1.05 1.03 0.94 0.94 0.96 1.11 1.12 1.06 0.97 0.88 0.85 0.87 0.86 0.84 0.81 0.77 0.71 0.70 0.68 0.65 0.59 0.50 0.43 0.41 0.44 0.47 0.49 0.50 0.52 0.51 0.53 0.62 0.69 0.67 0.64 0.72 0.83 0.92
1.47 1.41 1.33 1.31 1.30 1.23 1.19 1.08 1.07 1.09 1.13 1.19 1.27 1.27 1.20 1.12 1.09 0.99 0.87 0.84 0.81 0.73 0.62 0.56 0.55 0.50 0.40 0.39 0.35 0.39 0.46 0.51 0.53 0.55 0.55 0.50 0.51 0.52 0.51 0.53 0.66 0.80 0.83
1.71 1.66 1.60 1.52 1.46 1.40 1.37 1.33 1.25 1.22 1.22 1.27 1.30 1.26 1.25 1.23 1.17 1.04 0.92 0.88 0.85 0.80 0.76 0.63 0.58 0.57 0.51 0.43 0.37 0.40 0.49 0.55 0.54 0.52 0.51 0.44 0.42 0.47 0.48 0.51 0.56 0.64 0.66
1.66 1.65 1.65 1.64 1.61 1.48 1.42 1.39 1.32 1.28 1.28 1.30 1.29 1.25 1.15 1.11 1.03 0.97 0.95 0.89 0.81 0.78 0.75 0.69 0.63 0.56 0.44 0.33 0.29 0.30 0.40 0.50 0.50 0.48 0.49 0.51 0.51 0.48 0.48 0.48 0.52 0.62 0.68
1.76 1.70 1.65 1.58 1.53 1.46 1.40 1.37 1.36 1.33 1.31 1.28 1.19 1.12 1.04 0.99 0.92 0.91 0.84 0.75 0.68 0.65 0.61 0.57 0.53 0.52 0.42 0.25 0.20 0.22 0.38 0.49 0.46 0.40 0.38 0.42 0.47 0.49 0.47 0.50 0.62 0.68 0.74
1.62 1.50 1.36 1.29 1.32 1.33 1.32 1.30 1.30 1.27 1.22 1.05 0.89 0.82 0.84 0.84 0.80 0.74 0.67 0.62 0.60 0.59 0.51 0.46 0.45 0.44 0.40 0.26 0.21 0.24 0.36 0.45 0.42 0.40 0.39 0.39 0.41 0.42 0.41 0.50 0.64 0.74 0.75
1.22 1.14 1.07 1.12 1.19 1.20 1.15 1.13 1.10 1.08 1.00 0.91 0.78 0.73 0.72 0.67 0.64 0.62 0.60 0.57 0.53 0.57 0.55 0.52 0.47 0.41 0.33 0.22 0.18 0.21 0.28 0.38 0.43 0.43 0.45 0.42 0.33 0.31 0.34 0.46 0.55 0.63 0.61
0.90 0.86 0.86 0.92 0.96 0.93 0.95 1.02 1.00 0.90 0.84 0.87 0.81 0.75 0.66 0.55 0.54 0.64 0.61 0.57 0.60 0.63 0.61 0.57 0.51 0.40 0.31 0.20 0.16 0.19 0.23 0.27 0.38 0.46 0.44 0.40 0.32 0.31 0.35 0.44 0.51 0.53 0.62
0.67 0.70 0.70 0.73 0.81 0.81 0.84 0.90 0.91 0.80 0.79 0.86 0.84 0.72 0.58 0.59 0.59 0.62 0.59 0.52 0.50 0.47 0.44 0.43 0.43 0.38 0.30 0.23 0.18 0.21 0.24 0.27 0.30 0.36 0.33 0.31 0.32 0.35 0.48 0.51 0.51 0.60 0.80
0.49 0.57 0.59 0.59 0.66 0.68 0.73 0.78 0.73 0.70 0.83 0.92 0.84 0.67 0.55 0.52 0.51 0.50 0.44 0.38 0.38 0.37 0.36 0.34 0.33 0.33 0.34 0.30 0.27 0.28 0.28 0.29 0.31 0.34 0.34 0.39 0.45 0.49 0.58 0.65 0.75 0.80 0.85
0.46 0.51 0.55 0.54 0.51 0.54 0.60 0.57 0.58 0.69 0.92 0.89 0.74 0.60 0.48 0.44 0.42 0.35 0.28 0.23 0.21 0.19 0.24 0.25 0.24 0.28 0.28 0.25 0.26 0.25 0.24 0.26 0.26 0.27 0.43 0.64 0.69 0.76 0.81 0.84 0.90 0.95 0.89
0.42 0.50 0.50 0.45 0.46 0.51 0.53 0.50 0.51 0.60 0.79 0.79 0.60 0.48 0.42 0.37 0.31 0.27 0.26 0.18 0.13 0.11 0.10 0.12 0.13 0.14 0.16 0.16 0.17 0.19 0.21 0.23 0.26 0.32 0.54 0.66 0.70 0.76 0.77 0.77 0.82 0.89 0.90